When you browse on this site, cookies collect data to enhance your experience and personalize the content and advertising you see.
Visit our Privacy Policy to learn more. By continuing to use the site, you agree to this use of cookies and data.
  • In Portugal
  • List of Countries
  • For 7 days
  • Water Temperature
  • Satellite Maps
  • Weather Map
  • Weather Widgets
  • user-avatar
    Login

    Hourly Weather Gadilovichi

    Today, 20 April, Saturday

    Time Temperature Precipitation Wind Pressure Humidity
    00:00 +8°C° 0 mm 1 mps 759 mmHg 53%
    01:00 +7°C° 0 mm 1 mps 759 mmHg 54%
    02:00 +5°C° 0 mm 2 mps 759 mmHg 56%
    03:00 +5°C° 0 mm 2 mps 758 mmHg 57%
    04:00 +5°C° 0 mm 2 mps 758 mmHg 58%
    05:00 +5°C° 0 mm 2 mps 758 mmHg 60%
    06:00 +6°C° 0 mm 2 mps 758 mmHg 57%
    07:00 +8°C° 0 mm 2 mps 757 mmHg 54%
    08:00 +10°C° 0 mm 2 mps 757 mmHg 51%
    09:00 +11°C° 0 mm 3 mps 757 mmHg 47%
    10:00 +13°C° 0 mm 3 mps 757 mmHg 43%
    11:00 +14°C° 0 mm 3 mps 757 mmHg 40%
    12:00 +16°C° 0 mm 3 mps 756 mmHg 37%
    13:00 +16°C° 0 mm 3 mps 756 mmHg 35%
    14:00 +17°C° 0 mm 3 mps 756 mmHg 33%
    15:00 +16°C° 0 mm 2 mps 755 mmHg 36%
    16:00 +16°C° 0 mm 2 mps 755 mmHg 39%
    17:00 +15°C° 0 mm 1 mps 755 mmHg 42%
    18:00 +14°C° 0 mm 1 mps 755 mmHg 47%
    19:00 +13°C° 0 mm 1 mps 755 mmHg 53%
    20:00 +11°C° 0 mm 1 mps 755 mmHg 59%
    21:00 +11°C° 0.3 mm 1 mps 755 mmHg 64%
    22:00 +10°C° 0.3 mm 1 mps 755 mmHg 70%
    23:00 +10°C° 0.3 mm 1 mps 755 mmHg 75%

    Tomorrow, 21 April, Sunday

    Time Temperature Precipitation Wind Pressure Humidity
    00:00 +10°C° 0.1 mm 1 mps 755 mmHg 76%
    01:00 +9°C° 0.1 mm 1 mps 754 mmHg 76%
    02:00 +9°C° 0.1 mm 1 mps 754 mmHg 76%
    03:00 +9°C° 0.1 mm 1 mps 754 mmHg 78%
    04:00 +7°C° 0.1 mm 2 mps 754 mmHg 79%
    05:00 +7°C° 0.1 mm 2 mps 754 mmHg 80%
    06:00 +8°C° 0.3 mm 2 mps 754 mmHg 79%
    07:00 +9°C° 0.3 mm 3 mps 754 mmHg 77%
    08:00 +10°C° 0.3 mm 3 mps 754 mmHg 75%
    09:00 +11°C° 0.5 mm 4 mps 754 mmHg 66%
    10:00 +13°C° 0.5 mm 5 mps 754 mmHg 57%
    11:00 +14°C° 0.5 mm 6 mps 754 mmHg 48%
    12:00 +15°C° 0 mm 6 mps 754 mmHg 45%
    13:00 +15°C° 0 mm 6 mps 754 mmHg 41%
    14:00 +16°C° 0 mm 6 mps 754 mmHg 38%
    15:00 +15°C° 0 mm 6 mps 754 mmHg 40%
    16:00 +15°C° 0 mm 6 mps 754 mmHg 42%
    17:00 +14°C° 0 mm 6 mps 754 mmHg 45%
    18:00 +13°C° 0 mm 5 mps 755 mmHg 48%
    19:00 +10°C° 0 mm 5 mps 755 mmHg 52%
    20:00 +10°C° 0 mm 4 mps 756 mmHg 55%
    21:00 +8°C° 0 mm 4 mps 756 mmHg 56%
    22:00 +7°C° 0 mm 4 mps 757 mmHg 58%
    23:00 +7°C° 0 mm 4 mps 757 mmHg 59%

    Day after tomorrow, 22 April, Monday

    Time Temperature Precipitation Wind Pressure Humidity
    00:00 +7°C° 0 mm 3 mps 757 mmHg 60%
    01:00 +7°C° 0 mm 3 mps 758 mmHg 61%
    02:00 +5°C° 0 mm 3 mps 758 mmHg 62%
    03:00 +5°C° 0 mm 3 mps 758 mmHg 64%
    04:00 +5°C° 0 mm 3 mps 758 mmHg 65%
    05:00 +6°C° 0 mm 2 mps 758 mmHg 66%
    06:00 +8°C° 0 mm 2 mps 759 mmHg 62%
    07:00 +9°C° 0 mm 3 mps 759 mmHg 58%
    08:00 +11°C° 0 mm 3 mps 760 mmHg 54%
    09:00 +12°C° 0 mm 3 mps 760 mmHg 49%
    10:00 +13°C° 0 mm 3 mps 760 mmHg 43%
    11:00 +14°C° 0 mm 4 mps 760 mmHg 37%
    12:00 +14°C° 0 mm 4 mps 760 mmHg 37%
    13:00 +14°C° 0 mm 4 mps 760 mmHg 37%
    14:00 +14°C° 0 mm 3 mps 760 mmHg 37%
    15:00 +14°C° 0 mm 3 mps 760 mmHg 37%
    16:00 +14°C° 0 mm 3 mps 759 mmHg 38%
    17:00 +14°C° 0 mm 3 mps 759 mmHg 39%
    18:00 +13°C° 0 mm 2 mps 760 mmHg 43%
    19:00 +12°C° 0 mm 2 mps 760 mmHg 48%
    20:00 +9°C° 0 mm 2 mps 760 mmHg 52%
    21:00 +10°C° 0 mm 1 mps 760 mmHg 53%
    22:00 +9°C° 0 mm 1 mps 760 mmHg 54%
    23:00 +9°C° 0 mm 1 mps 761 mmHg 54%

    23 April, Tuesday

    Time Temperature Precipitation Wind Pressure Humidity
    00:00 +9°C° 0 mm 1 mps 761 mmHg 54%
    01:00 +10°C° 0 mm 1 mps 761 mmHg 53%
    02:00 +10°C° 0 mm 1 mps 761 mmHg 52%
    03:00 +9°C° 0 mm 1 mps 761 mmHg 55%
    04:00 +9°C° 0 mm 1 mps 761 mmHg 58%
    05:00 +7°C° 0 mm 2 mps 761 mmHg 60%
    06:00 +9°C° 0 mm 2 mps 762 mmHg 57%
    07:00 +10°C° 0 mm 2 mps 762 mmHg 53%
    08:00 +13°C° 0 mm 2 mps 762 mmHg 50%
    09:00 +14°C° 0 mm 2 mps 762 mmHg 45%
    10:00 +14°C° 0 mm 3 mps 762 mmHg 39%
    11:00 +17°C° 0 mm 3 mps 762 mmHg 34%
    12:00 +17°C° 0 mm 3 mps 761 mmHg 33%
    13:00 +17°C° 0 mm 3 mps 761 mmHg 33%
    14:00 +18°C° 0 mm 3 mps 761 mmHg 32%
    15:00 +17°C° 0 mm 3 mps 761 mmHg 34%
    16:00 +17°C° 0 mm 3 mps 760 mmHg 36%
    17:00 +17°C° 0 mm 3 mps 760 mmHg 37%
    18:00 +14°C° 0 mm 3 mps 760 mmHg 42%
    19:00 +13°C° 0 mm 3 mps 760 mmHg 46%
    20:00 +12°C° 0 mm 3 mps 761 mmHg 50%
    21:00 +12°C° 0 mm 2 mps 761 mmHg 53%
    22:00 +10°C° 0 mm 2 mps 761 mmHg 56%
    23:00 +9°C° 0 mm 2 mps 761 mmHg 60%

    24 April, Wednesday

    Time Temperature Precipitation Wind Pressure Humidity
    00:00 +9°C° 0 mm 2 mps 761 mmHg 61%
    01:00 +8°C° 0 mm 2 mps 761 mmHg 63%
    02:00 +8°C° 0 mm 2 mps 761 mmHg 65%
    03:00 +7°C° 0 mm 2 mps 761 mmHg 66%
    04:00 +7°C° 0 mm 2 mps 761 mmHg 68%
    05:00 +7°C° 0 mm 2 mps 761 mmHg 69%
    06:00 +8°C° 0 mm 3 mps 761 mmHg 65%
    07:00 +10°C° 0 mm 3 mps 761 mmHg 60%
    08:00 +12°C° 0 mm 3 mps 761 mmHg 55%
    09:00 +13°C° 0 mm 4 mps 761 mmHg 51%
    10:00 +15°C° 0 mm 5 mps 761 mmHg 46%
    11:00 +16°C° 0 mm 5 mps 761 mmHg 41%
    12:00 +17°C° 0 mm 5 mps 761 mmHg 41%
    13:00 +17°C° 0 mm 5 mps 760 mmHg 40%
    14:00 +19°C° 0 mm 5 mps 760 mmHg 40%
    15:00 +17°C° 0 mm 5 mps 760 mmHg 41%
    16:00 +17°C° 0 mm 5 mps 759 mmHg 42%
    17:00 +17°C° 0 mm 5 mps 759 mmHg 43%
    18:00 +15°C° 0 mm 4 mps 759 mmHg 49%
    19:00 +13°C° 0 mm 4 mps 759 mmHg 55%
    20:00 +12°C° 0 mm 3 mps 759 mmHg 60%
    21:00 +11°C° 0 mm 3 mps 759 mmHg 62%
    22:00 +10°C° 0 mm 3 mps 759 mmHg 63%
    23:00 +10°C° 0 mm 3 mps 759 mmHg 65%

    25 April, Thursday

    Time Temperature Precipitation Wind Pressure Humidity
    00:00 +9°C° 0 mm 3 mps 759 mmHg 66%
    01:00 +9°C° 0 mm 3 mps 759 mmHg 67%
    02:00 +9°C° 0 mm 3 mps 759 mmHg 69%
    03:00 +8°C° 0 mm 3 mps 759 mmHg 69%
    04:00 +8°C° 0 mm 3 mps 759 mmHg 70%
    05:00 +8°C° 0 mm 3 mps 759 mmHg 71%
    06:00 +8°C° 0 mm 4 mps 759 mmHg 66%
    07:00 +11°C° 0 mm 4 mps 759 mmHg 61%
    08:00 +13°C° 0 mm 5 mps 759 mmHg 56%
    09:00 +15°C° 0 mm 5 mps 759 mmHg 51%
    10:00 +16°C° 0 mm 5 mps 759 mmHg 46%
    11:00 +19°C° 0 mm 6 mps 759 mmHg 41%
    12:00 +19°C° 0 mm 6 mps 758 mmHg 40%
    13:00 +20°C° 0 mm 6 mps 758 mmHg 39%
    14:00 +20°C° 0 mm 6 mps 757 mmHg 38%
    15:00 +20°C° 0 mm 5 mps 757 mmHg 39%
    16:00 +20°C° 0 mm 5 mps 757 mmHg 40%
    17:00 +20°C° 0 mm 4 mps 756 mmHg 41%
    18:00 +18°C° 0 mm 4 mps 756 mmHg 47%
    19:00 +16°C° 0 mm 3 mps 756 mmHg 53%
    20:00 +13°C° 0 mm 3 mps 756 mmHg 59%
    21:00 +13°C° 0 mm 3 mps 756 mmHg 61%
    22:00 +12°C° 0 mm 3 mps 756 mmHg 63%
    23:00 +12°C° 0 mm 3 mps 756 mmHg 65%
    Show more